Theta_e
328 324 323 323 322 320 318 318 319 318 318 318 316 315 314 313 313 313 311 310 309 309 309 309 309 310 310 310 309 308 307 308 311 324 340 343 344 345 343 341 341 332 330
325 323 323 322 321 319 319 319 320 319 319 318 318 317 316 315 314 314 314 315 313 311 311 311 311 310 310 310 310 310 308 307 307 308 319 339 343 342 342 341 341 339 331
324 324 323 322 321 320 319 320 320 319 319 318 318 318 317 316 315 314 315 317 318 318 316 313 313 315 312 310 310 312 311 311 308 307 307 319 339 343 341 340 341 342 342
325 324 324 322 322 320 320 320 320 319 319 319 319 319 319 318 317 316 315 317 319 320 320 318 322 323 323 317 312 310 313 314 313 309 307 307 320 341 341 341 341 341 343
325 323 323 322 321 320 320 320 320 319 319 319 320 320 320 320 320 319 317 316 318 321 322 322 323 325 327 327 325 321 315 316 316 314 310 307 309 330 335 328 336 340 341
329 323 323 323 322 321 320 320 320 319 319 320 320 321 321 321 321 321 320 317 316 321 323 323 326 331 332 332 332 329 329 324 319 319 316 307 308 325 327 328 334 337 341
332 330 325 323 322 321 321 321 321 320 319 320 320 320 321 321 321 322 321 320 318 320 328 326 321 328 326 330 332 330 329 330 326 319 319 311 316 323 327 332 336 337 338
330 331 332 326 322 322 321 321 321 320 320 320 320 320 321 321 321 322 322 321 321 323 325 323 321 322 321 320 319 319 325 331 329 324 321 318 322 325 325 328 328 329 333
332 332 332 333 325 322 321 321 321 320 320 320 320 320 320 321 321 321 321 321 322 326 328 327 327 327 325 322 319 319 317 321 329 328 319 324 325 325 327 329 324 322 321
333 334 334 333 333 330 326 321 321 320 320 320 319 320 320 321 321 321 322 322 323 328 329 329 330 329 328 326 324 324 319 317 319 327 325 324 329 330 329 329 330 330 321
335 335 335 334 334 334 333 330 320 320 320 320 319 320 320 321 322 322 323 323 327 327 330 330 331 329 327 325 325 322 319 316 317 322 327 323 329 332 331 330 330 330 329
333 333 335 334 334 334 334 334 328 321 321 321 320 319 320 321 322 323 323 325 329 329 332 332 331 329 329 328 327 325 318 317 320 321 319 323 322 330 330 330 330 330 330
331 331 332 333 334 334 334 334 334 331 324 321 321 320 320 320 321 322 322 326 332 330 331 333 332 330 329 328 328 325 326 328 328 326 325 320 326 329 330 330 330 330 330
331 331 330 329 332 334 335 335 335 335 334 329 322 321 321 320 321 321 321 327 331 330 331 333 332 330 330 329 328 328 328 327 328 327 328 325 328 330 330 330 330 328 327
331 330 329 329 330 332 334 335 335 336 336 335 328 322 321 322 322 321 322 328 333 332 331 332 332 331 331 329 330 328 329 328 327 327 327 329 329 329 330 331 330 328 328
330 330 329 329 329 328 330 332 334 335 336 336 336 330 324 324 326 323 325 332 337 333 332 333 330 331 330 330 331 329 328 328 326 327 326 328 330 328 328 330 331 329 327
329 330 329 329 328 328 327 328 331 330 333 337 337 337 338 338 332 330 335 335 334 331 335 332 332 331 331 331 330 329 328 326 326 326 326 326 328 328 330 330 329 328 326
328 329 329 328 327 328 328 328 328 329 335 338 338 339 340 339 338 338 336 335 331 333 334 335 334 331 331 331 329 328 328 327 326 326 326 327 327 328 330 328 327 326 324
329 329 329 327 327 329 329 328 329 332 338 339 340 341 341 340 340 337 337 332 331 331 333 333 332 332 331 329 327 327 328 326 326 326 327 327 327 328 328 328 328 324 318
329 328 327 328 329 329 329 329 332 338 341 341 342 343 342 341 338 336 332 333 332 330 330 331 330 330 329 328 328 326 326 327 327 327 326 326 327 328 328 327 327 329 319
328 328 327 327 327 328 330 332 337 342 343 343 342 341 338 334 332 332 333 333 330 331 332 329 328 329 328 328 327 325 326 326 325 325 325 326 327 327 327 326 327 329 330
328 328 327 327 328 330 332 334 339 342 343 342 340 338 336 334 332 333 332 333 332 331 330 328 327 327 328 327 325 327 326 325 324 323 324 325 327 325 326 326 327 328 330
327 327 327 328 330 332 335 340 342 342 341 342 341 339 336 332 332 332 333 334 331 328 329 327 328 327 326 325 326 326 323 324 324 323 323 324 325 325 325 327 327 327 330
327 329 330 331 333 335 339 343 343 341 340 341 338 335 332 332 332 332 333 332 330 328 328 328 327 325 324 323 324 324 322 325 326 324 324 325 328 327 326 328 328 328 329
329 330 333 333 335 341 342 342 340 340 337 332 332 332 332 333 333 333 333 331 329 327 326 326 326 326 326 324 325 325 324 324 325 325 325 326 326 326 326 327 327 327 325
332 333 334 333 339 341 341 341 336 334 335 334 333 334 333 333 333 332 331 329 327 324 324 325 325 325 325 325 325 324 325 324 324 322 325 326 326 327 325 326 325 324 324
Wind_Speed
18 18 15 14 12 10 9 9 9 8 9 9 9 8 7 6 5 3 1 1 2 3 3 4 5 6 6 7 8 9 11 14 15 15 12 9 10 7 4 4 6 9 9
19 19 17 16 14 12 12 11 10 9 9 8 8 7 6 6 5 4 2 1 1 2 3 3 4 5 6 6 7 8 9 11 13 15 15 12 7 7 8 8 9 9 8
18 19 18 16 16 15 14 13 12 11 10 9 8 7 6 5 4 4 2 1 1 2 3 3 3 5 5 6 7 7 8 8 10 11 14 15 12 8 9 10 10 10 10
14 18 18 17 17 16 15 15 14 13 12 11 9 6 4 3 3 3 3 1 1 2 3 4 5 5 5 6 6 7 7 8 8 8 11 14 16 13 10 9 11 10 11
16 18 17 17 18 17 17 17 16 16 15 14 11 8 5 3 1 2 3 3 3 3 3 5 6 7 7 5 6 6 7 8 7 7 8 11 16 15 15 12 10 11 12
16 17 16 16 18 18 19 20 20 20 19 16 13 11 8 6 3 1 3 4 5 6 5 5 7 8 10 10 9 9 8 8 8 7 8 11 16 15 13 10 11 10 12
15 14 17 20 20 20 22 22 22 23 21 19 17 14 11 8 6 4 4 5 6 6 6 7 8 11 13 14 14 14 13 10 8 7 8 12 17 14 12 10 9 9 11
10 12 15 20 23 23 24 25 25 25 24 22 21 18 15 12 10 7 7 8 7 6 6 9 10 12 14 14 16 17 17 15 12 9 9 13 17 13 13 10 11 10 9
14 15 18 22 25 25 26 27 27 27 26 25 24 22 19 16 14 10 9 10 9 8 6 7 9 11 13 13 14 15 16 18 16 13 11 14 16 13 13 13 12 13 16
19 25 25 26 24 26 27 30 30 29 29 28 28 25 23 20 17 15 12 12 11 9 7 7 8 11 13 14 14 15 15 16 19 16 13 14 18 15 15 15 12 9 10
26 29 31 31 28 29 29 30 33 33 32 31 31 29 27 26 22 18 14 12 13 11 9 9 9 9 8 9 13 14 14 15 15 16 16 13 19 18 16 19 17 13 9
29 29 30 32 35 34 35 32 34 37 36 36 36 35 32 29 25 20 17 14 13 11 11 11 11 9 7 6 9 12 11 8 8 9 15 17 20 22 18 17 16 14 12
17 17 23 31 37 38 37 38 36 37 39 40 40 39 36 32 28 24 19 17 16 10 13 12 12 11 9 9 7 5 5 6 6 5 11 16 19 19 19 18 17 13 12
26 28 25 22 27 36 39 39 40 39 38 40 42 41 39 36 32 27 22 19 18 14 15 15 14 11 12 12 11 12 10 9 8 8 7 10 16 17 18 19 17 14 15
28 26 26 25 20 27 35 36 39 43 41 37 39 41 40 37 34 28 21 21 19 17 18 17 17 15 14 15 15 15 13 12 11 14 12 14 13 18 19 19 18 13 12
30 28 28 27 23 17 21 29 33 37 40 39 34 33 33 33 32 27 22 20 19 21 18 17 17 20 21 18 19 19 18 19 18 16 17 16 17 15 20 22 18 16 12
31 34 31 30 26 21 22 26 30 32 38 40 34 28 27 26 22 19 19 17 22 21 18 18 20 21 21 23 24 20 19 19 19 19 20 17 16 15 14 15 17 17 15
36 26 31 29 22 22 22 26 27 28 32 38 32 27 25 21 19 19 18 19 19 20 20 21 23 23 23 23 24 22 23 19 19 19 20 19 18 16 16 14 15 17 17
32 26 29 24 21 19 22 25 25 27 30 33 28 24 23 22 20 19 20 17 17 22 24 25 24 23 22 22 21 18 20 20 18 20 18 21 20 17 15 11 9 10 14
33 25 29 24 17 17 23 24 26 28 30 28 25 23 22 22 19 19 19 16 18 18 19 22 22 22 21 20 17 17 18 21 19 17 16 19 20 21 18 12 10 11 13
24 28 30 22 18 19 24 29 29 31 27 26 21 21 24 19 16 13 14 16 15 18 19 20 20 20 17 18 17 16 18 19 20 19 18 17 20 22 21 19 17 11 12
21 22 26 23 19 23 26 29 32 33 24 22 20 20 19 15 13 14 15 15 16 20 19 19 18 15 16 15 14 11 7 14 18 19 19 20 19 18 17 19 19 15 16
24 24 24 24 23 22 22 25 26 28 24 21 19 18 18 14 14 16 16 16 18 19 18 16 15 15 14 13 14 10 5 6 4 11 18 20 19 16 17 15 19 19 13
25 22 22 22 20 19 21 24 25 25 25 22 19 18 16 16 17 15 17 17 17 17 16 14 12 11 10 12 13 15 14 4 1 3 17 19 17 15 14 13 16 17 15
22 21 21 18 17 19 19 18 19 20 19 16 15 16 18 20 20 20 18 17 16 14 10 8 8 9 11 13 15 13 14 16 10 9 9 20 15 15 15 17 18 16 14
23 22 20 18 20 19 19 20 20 19 16 17 17 17 15 15 16 16 17 15 11 8 7 7 8 9 10 11 13 14 15 18 18 9 10 19 16 14 13 14 15 14 12
Wind_Direction
169 173 171 172 176 172 164 154 143 133 125 120 119 117 113 111 111 122 154 238 262 256 249 243 244 251 249 240 237 235 239 237 229 231 234 239 197 191 197 192 184 178 165
156 167 175 176 177 176 173 165 154 149 143 140 134 128 121 111 98 84 71 69 267 274 271 264 267 266 260 258 253 243 235 239 238 230 230 229 230 205 199 217 206 194 163
165 169 176 179 180 180 178 173 166 165 168 166 158 151 139 120 110 99 87 70 286 279 282 279 279 278 274 270 260 255 251 240 237 234 228 224 220 207 203 207 215 205 194
169 176 180 183 186 187 186 182 177 182 186 184 178 168 146 119 78 49 30 34 228 262 266 265 281 286 290 281 270 264 256 254 247 231 223 216 214 210 208 203 214 214 210
187 182 182 187 192 192 192 192 192 194 197 197 193 188 184 169 118 14 344 335 314 286 246 254 265 282 285 272 280 269 261 258 249 242 222 210 202 204 213 225 218 217 213
193 186 191 197 198 199 200 201 203 204 205 206 206 205 204 211 217 292 325 325 305 289 278 274 269 274 276 273 273 274 265 267 257 240 224 205 192 198 212 231 224 230 223
200 195 205 209 205 205 207 208 211 213 213 213 214 217 220 228 236 261 295 310 294 288 269 277 271 260 265 264 265 267 265 259 264 243 223 200 188 190 189 217 225 228 232
209 217 221 220 216 214 216 216 215 217 218 219 219 221 226 232 239 252 278 292 295 290 281 278 282 279 274 269 266 264 258 254 251 248 230 207 192 194 198 225 242 244 250
213 240 234 228 220 221 226 224 222 222 222 223 223 225 229 231 240 249 267 284 291 282 286 290 291 287 280 271 269 270 259 251 251 244 228 212 205 200 205 217 251 259 255
224 226 229 234 233 230 230 232 229 228 227 228 229 228 231 234 239 246 255 274 281 276 279 296 305 304 279 269 268 270 262 251 245 244 233 213 211 213 209 212 231 248 254
225 232 229 233 238 245 240 239 232 232 232 231 233 233 234 235 239 245 254 270 266 279 278 288 304 313 303 280 278 268 257 252 243 240 231 219 214 221 226 222 221 231 254
235 236 233 235 235 241 245 240 238 233 232 234 234 234 236 239 242 247 252 263 260 277 277 286 291 298 292 300 309 271 250 246 242 248 242 230 223 224 227 223 217 230 250
261 238 238 237 237 241 247 245 241 238 235 237 238 238 239 241 242 244 249 255 255 260 269 275 278 286 278 299 292 299 230 234 224 272 249 218 215 218 221 217 218 228 242
272 274 275 270 242 238 243 249 247 246 242 239 241 241 239 240 243 243 248 252 256 259 263 264 261 270 260 278 266 258 253 250 263 263 248 226 224 230 221 217 222 230 246
266 261 265 261 250 235 241 246 249 252 246 244 243 243 242 243 246 244 245 251 255 264 262 257 256 266 266 267 275 259 251 253 261 257 245 244 257 240 232 233 224 236 245
274 258 259 257 254 249 244 245 252 255 254 247 243 242 243 245 248 241 244 245 251 257 253 255 259 274 281 258 268 274 258 255 256 253 258 259 244 251 236 235 236 236 250
282 268 254 247 248 263 272 260 258 267 261 246 241 237 233 240 233 225 232 242 248 252 256 255 263 274 270 265 271 267 252 249 245 244 245 246 248 245 230 231 244 247 251
277 282 242 233 248 264 267 268 271 270 258 243 241 237 231 230 225 221 236 242 253 247 252 253 258 263 267 264 264 263 246 248 235 239 239 244 246 229 227 237 241 248 239
267 264 236 240 252 266 273 263 266 261 249 239 238 234 228 227 220 221 230 247 260 253 251 258 263 264 268 267 263 256 243 241 244 241 245 237 238 225 211 218 239 254 224
258 253 239 241 251 270 265 254 249 242 234 230 226 224 225 215 201 229 236 255 267 248 257 265 270 272 273 263 258 253 243 236 242 246 250 238 228 224 216 232 238 246 233
245 243 239 245 261 266 246 238 229 223 209 211 212 207 199 209 231 229 239 266 278 270 273 273 278 273 259 255 255 247 244 241 244 247 240 228 222 226 239 238 231 239 238
247 242 241 251 256 253 242 229 222 214 200 203 208 221 245 243 226 229 262 275 278 280 281 278 271 259 252 250 234 233 234 243 244 242 231 218 219 216 216 221 230 235 231
239 240 244 247 242 238 231 215 207 211 214 217 217 231 234 238 243 252 259 270 276 281 277 273 253 252 252 233 223 213 202 232 244 234 222 212 197 205 211 207 226 235 234
234 230 235 232 230 220 208 204 199 201 205 211 221 221 221 232 239 249 262 265 276 276 273 264 251 233 224 217 217 219 233 226 164 209 213 210 210 214 220 223 220 229 229
219 221 220 220 214 196 192 192 190 193 190 185 188 204 222 228 230 245 262 273 276 271 255 234 225 230 233 226 228 235 236 225 235 246 207 208 210 207 213 223 239 230 229
201 202 201 197 189 181 175 173 176 178 178 185 198 209 214 222 234 251 267 270 261 244 233 232 235 236 240 239 236 234 225 217 222 226 201 206 208 199 212 218 224 217 210